Home > Time Zones > World Clock > Weather > U.S.A. > Mesa > Past weeks

Flag Weather past 2 weeks in Mesa, Arizona, U.S.A.

Now
52 °F

Clear.


Feels Like: 48 °F
Forecast: 49 / 76 °F
Wind: 10 mph from Southeast

Location: Williams Gateway Airport

Current Time: Nov 29, 2014 at 12:40:54 AM

Latest Report: Nov 29, 2014 at 12:15 AM


Visibility: 10 mi

Pressure: 29.94 "Hg

Humidity: 32%

Dew point: 23 °F

Location of MesaLocation

Historic Weather in Mesa — Graph

°F

Mesa temperature yesterday

Maximum temperature yesterday: 81 °F (at 2:47 PM)
Minimum temperature yesterday: 43 °F (at 5:47 AM)
Average temperature yesterday: 56 °F

Past Weeks' High & Low Weather Summary

 TemperatureHumidityPressure
High82 °F (Nov 27, 3:47 PM)82% (Nov 14, 1:35 AM)30.48 "Hg (Nov 14, 1:35 AM)
Low34 °F (Nov 24, 6:50 AM)7% (Nov 25, 1:52 PM)29.88 "Hg (Nov 16, 2:15 AM)
Average52 °F38%30.10 "Hg
* Reported Nov 13 10:52 PM — Nov 28 10:47 PM, Mesa, Weather by CustomWeather, © 2014

Note: Actual official high and low records may vary slightly from our data, if they occured in-between our weather recording intervals... More about our weather records

Advertising

Mesa weather history for previous 24 hours

 ConditionsComfort  
Time TempWeatherWind HumidityBarometerVisibility
10:47 PM
Nov 28
52 °FClear.8 mph30%29.94 "Hg20 mi
9:47 PM54 °FClear.8 mph30%29.94 "Hg20 mi
8:47 PM59 °FClear.6 mph29%29.94 "Hg20 mi
7:47 PM63 °FClear.5 mph27%29.93 "Hg20 mi
6:47 PM64 °FClear.No wind24%29.93 "Hg20 mi
5:47 PM72 °FClear.No wind20%29.93 "Hg20 mi
3:47 PM81 °FSunny.No wind13%29.94 "Hg45 mi
2:47 PM81 °FSunny.No wind13%29.95 "Hg45 mi
1:46 PM79 °FSunny.No wind15%29.98 "Hg45 mi
12:47 PM75 °FSunny.5 mph15%30.01 "Hg45 mi
11:47 AM73 °FSunny.No wind17%30.05 "Hg45 mi
10:49 AM70 °FSunny.No wind20%30.08 "Hg45 mi
9:48 AM63 °FSunny.No wind30%30.09 "Hg45 mi
8:47 AM55 °FSunny.No wind33%30.09 "Hg45 mi
7:47 AM45 °FSunny.No wind42%30.08 "Hg45 mi
6:47 AM43 °FClear.6 mph42%30.08 "Hg20 mi
5:47 AM43 °FClear.3 mph46%30.07 "Hg20 mi
4:47 AM45 °FClear.5 mph39%30.07 "Hg20 mi
4:35 AM45 °FClear.7 mph39%30.07 "Hg10 mi
4:15 AM46 °FClear.6 mph37%30.07 "Hg7 mi
3:55 AM45 °FDense fog.8 mph39%30.07 "Hg1 mi
3:35 AM46 °FClear.7 mph40%30.08 "Hg3 mi
3:15 AM45 °FClear.7 mph49%30.08 "Hg10 mi
2:55 AM46 °FClear.6 mph43%30.09 "Hg10 mi
2:35 AM48 °FClear.7 mph37%30.08 "Hg10 mi
2:15 AM48 °FClear.7 mph40%30.09 "Hg10 mi
1:55 AM46 °FClear.6 mph43%30.09 "Hg10 mi
1:35 AM52 °FClear.8 mph30%30.09 "Hg7 mi
1:15 AM52 °FDense fog.7 mph30%30.10 "Hg2 mi
12:55 AM50 °FDense fog.7 mph35%30.09 "Hg2 mi
12:35 AM50 °FClear.6 mph35%30.09 "Hg10 mi
12:15 AM54 °FClear.8 mph30%30.09 "Hg3 mi
Weather by CustomWeather, © 2014

See weather overviewHow to use our weather pages